Other Public Products
Issued by NWS Grand Forks, ND

Home | Current Version | Previous Version | Graphics & Text | Print | Product List | Glossary On
Versions: 1 2 3 4 5 6 7 8 9 10 11 12 13 14 15 16 17 18 19 20 21 22 23 24 25 26 27 28 29 30 31 32 33 34 35 36 37 38 39 40 41 42 43 44 45 46 47 48 49 50
670
FPUS83 KFGF 232331
OPUFGF
PRAIRIE TO PINES WEATHER ROUNDUP
NATIONAL WEATHER SERVICE EASTERN NORTH DAKOTA/GRAND FORKS ND
600 PM CDT MON MAY 23 2016

 **SATELLITE DATA USED TO AUGMENT SKY COVER AT AUTOMATED STATIONS**
 *****  WEATHER ACROSS EASTERN NORTH DAKOTA  *****

CITY           SKY/WX    TMP DP  RH WIND       PRES   REMARKS
GRAND FORKS    MOSUNNY   81  45  28 SW7       29.65S
GRAND FORKS AF PTSUNNY   78  42  27 W7        29.66S
GRAND CITY NWS   N/A     81 N/A N/A SW3         N/A
BUXTON           N/A     84  44  25 CALM        N/A
DEVILS LAKE    NOT AVBL
FARGO          CLOUDY    81  41  24 SW3       29.65F
WAHPETON ARPT  CLOUDY    79  45  29 S8        29.67F
$$

 *****  WEATHER ACROSS CENTRAL AND WESTERN NORTH DAKOTA  *****

CITY           SKY/WX    TMP DP  RH WIND       PRES   REMARKS
JAMESTOWN      MOSUNNY   77  49  37 SE12      29.67S
BISMARCK       MOSUNNY   77  36  22 W10       29.67S
MINOT          PTSUNNY   75  30  19 SW7       29.64R
MINOT AFB      MOSUNNY   72  35  25 SW9G24    29.62S
GARRISON         N/A     74  32  21 SW14      29.66S
WILLISTON      MOSUNNY   70  35  27 W22G33    29.66R
DICKINSON      RAIN      60  35  39 W17G40    29.71R
HETTINGER      PTSUNNY   71  33  24 CALM      29.70F
$$

 *****  OTHER OBSERVATIONS NORTHEAST NORTH DAKOTA  *****

CITY           SKY/WX    TMP DP  RH WIND       PRES   REMARKS
WALHALLA       FAIR      79  37  22 W14G21    29.63S
LANGDON        FAIR      75  43  31 W15G22    29.66S
CAVALIER       FAIR      79  37  22 SW15      29.64R
GRAFTON        FAIR      79  46  31 SW7       29.66S
CANDO          FAIR      77  36  22 SW20G26   29.67S
FORT TOTTEN      N/A     79  38  23 SW8       29.95S
ROLLA          FAIR      70  34  26 W22G29    29.66R
RUGBY          FAIR      75  32  20 SW20G28   29.65R
 ***** THE ABOVE OBSERVATIONS ARE NON NWS ARE NOT QUALITY
        CONTROLLED AND MAY MIS-REPORT RAIN FOR SNOW...
$$

 *****  OTHER OBSERVATIONS SOUTHEAST NORTH DAKOTA *****

CITY           SKY/WX    TMP DP  RH WIND       PRES   REMARKS
COOPERSTOWN    NOT AVBL
VALLEY CITY    FAIR      77  46  33 SW7       29.70S
OAKES            N/A    N/A N/A N/A MISG        N/A
GWINNER        FAIR      79  46  31 SW9       29.68S
BUFFALO          N/A     79  41  25 CALM        N/A
WYNDMERE         N/A     82  48  30 SW7         N/A
 ***** THE ABOVE OBSERVATIONS ARE NON NWS ARE NOT QUALITY
       CONTROLLED AND MAY MIS-REPORT RAIN FOR SNOW...
$$

  *****  WEATHER ACROSS NORTHERN MINNESOTA  *****

CITY           SKY/WX    TMP DP  RH WIND       PRES   REMARKS
FLAG ISLAND    CLOUDY    70  54  56 SE7       29.64S
WARROAD        CLOUDY    77  48  36 SW9       29.67R
ROSEAU         CLOUDY    79  48  34 SW8       29.67R
HALLOCK        MOSUNNY   79  39  24 SW10      29.64S
THF RVR FALLS  MOSUNNY   77  48  36 SW3       29.70S
HALSTAD        NOT AVBL
FOSSTON        MOSUNNY   77  45  31 CALM      29.70F
BAUDETTE       CLOUDY    78  44  29 W12       29.67R
WASKISH        MOSUNNY   73  55  53 MISG      29.70S
CROOKSTON      CLOUDY    79  43  27 W5        29.68S
$$
  *****  WEATHER ACROSS CENTRAL AND WEST MINNESOTA  *****

CITY           SKY/WX    TMP DP  RH WIND       PRES   REMARKS
BEMIDJI        MOSUNNY   75  51  43 NW9       29.71S
PARK RAPIDS    CLOUDY    78  54  43 S8        29.70F
WADENA         CLOUDY    75  54  46 SW5       29.70F
DETROIT LAKES  CLOUDY    77  45  31 CALM      29.71S
MOORHEAD       CLOUDY    81  43  26 CALM      29.66F
FERGUS FALLS   CLOUDY    79  52  38 S6        29.64F
ELBOW LAKE     FAIR      77  51  40 S5        29.69F
MORRIS MN      CLOUDY    77  57  50 SW7       29.69S
STAPLES        CLOUDY    75  50  41 SW6       29.71F
WHEATON        PTSUNNY   79  57  47 W7        29.70S
$$
  *****  WEATHER ELSEWHERE ACROSS MINNESOTA  *****

CITY           SKY/WX    TMP DP  RH WIND       PRES   REMARKS
DULUTH         CLOUDY    73  56  54 W14       29.74F
INTRNTL FALLS  CLOUDY    75  53  46 W6        29.67R
ELY            MOSUNNY   75  55  50 SW8       29.71S
CLOQUET        CLOUDY    72  55  56 S6        29.75R
BRAINERD       CLOUDY    72  60  66 S12       29.73F
HIBBING        CLOUDY    74  56  53 VRB5G17   29.70F
ALEXANDRIA     LGT RAIN  76  53  44 CALM      29.73S
SAINT CLOUD    CLOUDY    67  64  90 SE3       29.72F THUNDER
MINNEAPOLIS    CLOUDY    75  60  59 S17G24    29.76F
$$

  *****  WEATHER ACROSS SOUTH DAKOTA  *****

CITY           SKY/WX    TMP DP  RH WIND       PRES   REMARKS
SIOUX FALLS    CLOUDY    73  60  63 SW6       29.73R
BROOKINGS      CLOUDY    72  60  66 SW8       29.73S
WATERTOWN      CLOUDY    73  58  59 S7        29.73S
HURON          SUNNY     75  54  47 S8        29.69F
SISSETON         N/A     78  53  41 SW10      29.68F
ABERDEEN       CLOUDY    80  51  36 W8        29.68F
MITCHELL       SUNNY     77  59  53 S8        29.71S
PIERRE         MOSUNNY   77  44  30 VRB3      29.67S
MOBRIDGE       SUNNY     78  49  35 SE13      29.66S
RAPID CITY     MOSUNNY   73  25  16 W17       29.71R
$$

  *****  SOME WEATHER IN NEARBY STATES *****

CITY           SKY/WX    TMP DP  RH WIND       PRES   REMARKS
GLASGOW MT     MOSUNNY   61  42  49 W18G28    29.67R
GREAT FALLS MT LGT RAIN  49  40  71 SW13      29.79R
CHEYENNE WY    PTSUNNY   57  39  51 S18       29.91S
SCOTTSBLUFF NE LGT RAIN  60  39  45 S14G22    29.87R
OMAHA NE       LGT RAIN  70  64  81 S15       29.78F
DES MOINES IA  CLOUDY    73  60  63 S8        29.84F
DAVENPORT IA   CLOUDY    84  42  22 S14       29.89S
CHICAGO IL     MOSUNNY   80  44  27 S8        29.92F
EAU CLAIRE WI  CLOUDY    82  52  35 S17       29.76S
LA CROSSE WI   MOSUNNY   84  48  28 S17       29.80R
$$

  *****  SOME NATIONAL WEATHER *****

CITY           SKY/WX    TMP DP  RH WIND       PRES   REMARKS
LA GUARDIA NY  CLOUDY    67  50  54 S8        29.86R
RALEIGH NC     PTSUNNY   66  50  56 VRB3      29.99R
ATLANTA GA     MOSUNNY   79  47  32 NW8       29.96S
NEW ORLEANS LA PTSUNNY   84  64  50 S10       29.93F
OKLAHOMA CITY  DRIZZLE   71  70  96 SE13      29.84S FOG
ALBUQUERQUE NM MOSUNNY   83  20   9 SW8G20    29.84F
SALT LAKE CITY PTSUNNY   66  29  24 SE7       29.84F
LOS ANGELES CA MOSUNNY   66  53  63 SW16      29.90F
BOISE ID       SUNNY     66  32  28 CALM      29.82F
SEATTLE WA     CLOUDY    65  47  52 N6        29.94S
$$

*** WEATHER ACROSS MANITOBA...SASKATCHEWAN AND ONTARIO ***
                ***ONTARIO***

CITY           SKY/WX    TMP DP  RH WIND       PRES   REMARKS
GERALDTON      NOT AVBL
THUNDER BAY    CLOUDY    79  54  41 SW16G22   29.66S
SIOUX LOOKOUT  PTSUNNY   72  59  64 W9        29.64S
TORONTO        MOSUNNY   75  45  33 S9        29.93S
BIG TROUT LK   RAIN      41  39  93 N10G18    29.49
PICKLE LAKE    PTSUNNY   68  57  68 SW18G26   29.57S
DRYDEN         SUNNY     73  50  43 W7        29.66R
KENORA         PTSUNNY   75  43  31 W12       29.66S
$$
                *** MANITOBA***

CITY           SKY/WX    TMP DP  RH WIND       PRES   REMARKS
BRANDON        PTSUNNY   75  34  22 SW15G24   29.60R
DAUPHIN        PTSUNNY   72  43  35 W7G17     29.60R
ISLAND LAKE    PTSUNNY   46  45  93 N12G18    29.65S
PILOT MOUND      N/A     75  39  27 SW17G23     N/A
THE PAS        CLOUDY    52  45  76 NE7       29.67R
THOMPSON       LGT RAIN  43  37  81 NE9       29.78R
WINNIPEG       PTSUNNY   77  41  27 W15       29.60F
LYNN LAKE      SUNNY     55  39  54 S9        29.78R
CHURCHILL      CLOUDY    28  23  80 N15       29.94R WCI  17
GILLAM         CLOUDY    41  37  87 NE20G31   29.81R
$$
                ***SASKATCHEWAN***

CITY           SKY/WX    TMP DP  RH WIND       PRES   REMARKS
ESTEVAN        PTSUNNY   70  37  30 SW24G32   29.61R
KINDERSLEY     CLOUDY    52  46  82 N18       29.59R
LLOYDMINSTER   CLOUDY    54  46  76 N16       29.67R
PRINCE ALBERT  LGT RAIN  52  50  93 NE9       29.60R
REGINA         CLOUDY    59  41  51 S15G22    29.57S
YORKTON        MOSUNNY   66  39  37 SW15G21   29.58R
N. BATTLEFORD  LGT RAIN  48  48 100 N12       29.63R   C1F1C2F2C3F3C4F4C5F5C6F6C7F7C8F8C9F9CaFaCbFbCcFcCdFdCe!



USA.gov is the U.S. government's official web portal to all federal, state and local government web resources and services.